Regional Weather Roundup
Issued by NWS Sterling, VA

Current Version | Previous Version | Text Only | Print | Product List | Glossary On
Versions: 1 2 3 4 5 6 7 8 9 10 11 12 13 14 15 16 17 18 19 20 21 22 23 24 25 26 27 28 29 30 31 32 33 34 35 36 37 38 39 40 41 42 43 44 45 46 47 48 49 50
000
ASUS41 KLWX 280910
RWRLWX

REGIONAL WEATHER ROUNDUP
NATIONAL WEATHER SERVICE BALTIMORE MD/WASHINGTON DC
400 AM EST WED JAN 28 2015

Note: "FAIR" indicates few or no clouds below 12,000 feet
with no significant weather and/or obstructions to visibility.
 TC=TEMPERATURE CELSIUS

 * =Non NWS site. Station does not report precipitation (e.g. rain,
    snow, etc.), thunder, or fog.

DCZ001-MDZ009-015-VAZ040>042-051-053>054-281000-
WASHINGTON METRO

CITY           SKY/WX    TMP DP  RH WIND       PRES   REMARKS
WASHINGTON NAT PTCLDY    26  10  50 NW12G20   30.09R WCI  16
DULLES         PTCLDY    22  10  60 NW15G23   30.07R WCI   9
ANDREWS AFB    CLEAR     23  10  56 NW14      30.05R WCI  11
FT BELVOIR     CLEAR     24  11  56 NW13G26   30.09R WCI  13
QUANTICO       CLEAR     26  11  52 N12G24    30.10R WCI  16
COLLEGE PARK*  CLEAR     25  10  54 NW7       30.07R
LEESBURG*      CLEAR     23  14  68 N16G25    30.09R WCI  10
MANASSAS*      CLEAR     25  14  63 NW14      30.09R WCI  13
GAITHERSBURG*  CLEAR     19   7  58 NW13G21   30.08R WCI   7

$$

MDZ006>007-011-014-281000-
BALTIMORE METRO

CITY           SKY/WX    TMP DP  RH WIND       PRES   REMARKS
BWI AIRPORT    PTCLDY    22   8  55 NW8       30.05R WCI  12
MD SCIENCE CTR   N/A     24   5  44 MISG      30.06R
MARTIN STATE   CLEAR     23   9  54 W10       30.07R WCI  12
ANNAPOLIS      CLEAR     26  12  55 NW21      30.05R WCI  12
FORT MEADE*    CLEAR     23  10  58 NW6G21    30.09R

$$

MDZ012-015-019>023-281000-
MARYLAND EASTERN SHORE

CITY           SKY/WX    TMP DP  RH WIND       PRES   REMARKS
OCEAN CITY     CLEAR     24  11  57 N16G25    29.99R WCI  11
SALISBURY      CLEAR     26  11  52 N15       30.01R WCI  14
BAY BRIDGE AP*   N/A     27  10  50 NW14G23   30.06R WCI  15
CAMBRIDGE*     CLEAR     30  12  47 N16G25    30.02R WCI  19
EASTON*        CLEAR     26  12  55 N14       30.07R WCI  14

$$

MDZ017>025-281000-
SOUTHERN MARYLAND

CITY           SKY/WX    TMP DP  RH WIND       PRES   REMARKS
PATUXENT RIVER CLEAR     27  13  55 NW20G25   30.04R WCI  13
ST INIGOES     CLEAR     28  12  51 NW9G21    30.04R WCI  19
LEONARDTOWN*   CLEAR     27  12  54 NW7G16    30.06R

$$

MDZ003>005-281000-
NORTH CENTRAL MARYLAND

CITY           SKY/WX    TMP DP  RH WIND       PRES   REMARKS
FREDERICK*     CLEAR     23   5  46 NW12G17   30.11R WCI  12
HAGERSTOWN APT CLEAR     17   5  59 W13       30.08R WCI   4
WESTMINSTER*   PTCLDY    18   7  62 NW7       30.02S

$$

MDZ501>502-281000-
WESTERN MARYLAND

CITY           SKY/WX    TMP DP  RH WIND       PRES   REMARKS
OAKLAND*       CLOUDY    10 N/A N/A W5        30.01R
CUMBERLAND*    FAIR      18   9  68 CALM      30.19R

$$

VAZ025>031-281000-
SHENANDOAH VALLEY

CITY           SKY/WX    TMP DP  RH WIND       PRES   REMARKS
WINCHESTER*    CLEAR     23   9  54 NW12      30.09S WCI  12
FRONT ROYAL*   FAIR      21  12  68 CALM      30.08S
LURAY*         FAIR      25  14  63 CALM      30.09R
NEW MARKET*    FAIR      16  13  87 CALM      30.09S
STAUNTON*      CLEAR     19  13  77 CALM      30.10R
WAYNESBORO*    FAIR      20  12  69 NW8       30.05S WCI  11

$$

WVZ021-048>050-054>055-281000-
EASTERN WEST VIRGINIA PANHANDLE

CITY           SKY/WX    TMP DP  RH WIND       PRES   REMARKS
MARTINSBURG    CLEAR     21   7  54 NW7       30.10S
PETERSBURG*    CLEAR     15  13  89 E3        30.14R

$$

VAZ036>039-050-281000-
CENTRAL FOOTHILLS

CITY           SKY/WX    TMP DP  RH WIND       PRES   REMARKS
CHARLOTTESVILL PTCLDY    28  11  48 NW13G20   30.06R WCI  17
CULPEPER*      CLEAR     27  12  54 N8        30.07S WCI  18
ORANGE*        CLEAR     28  12  50 NW3       30.08R
GORDONSVILLE*  FAIR      24  15  67 NW5       30.06R
WARRENTON*     FAIR      26  17  68 NW12      30.07R WCI  15

$$

VAZ055>057-281000-
NORTH AND CENTRAL PIEDMONT

CITY           SKY/WX    TMP DP  RH WIND       PRES   REMARKS
FREDERICKSBRG* CLEAR     27  13  56 N10       30.08R WCI  18
STAFFORD*      CLEAR     24  11  56 NW13G22   30.12R WCI  13

$$

NCZ024-NYZ072-PAZ021-071-VAZ022-071-281000-
OTHER REGIONAL OBSERVATIONS

CITY           SKY/WX    TMP DP  RH WIND       PRES   REMARKS
NEW YORK CITY  CLEAR     17  -1  45 NW8       29.93R WCI   7
PHILADELPHIA   PTCLDY    20   4  50 NW9       30.00S WCI   9
PITTSBURGH     FLURRIES  13  10  88 W6        30.18R
ROANOKE        PTCLDY    24  11  57 NW9       30.12R WCI  14
RICHMOND       PTCLDY    29  12  49 N13G25    30.06R WCI  19
RALEIGH        PTCLDY    27  12  53 VRB6      30.07R

$$

ANZ530>537-281000-
MARINE OBSERVATIONS

STATION/POSITION TIME  TEMP    WIND        PRES
                       AIR SEA DIR/SP/G
                 (UTC) (F)     (DEG/KT/KT) (MB)
THOMAS PT LIGHT  0900   26 36  320/ 20/ 23 1018.4R
BALT KEY BRIDGE  0900   25     300/ 16/ 20 1017.4R
COVE POINT       0900   27     350/ 26/ 30 1016.6S
LEWISETTA        0900   28 36  350/ 15/ 22 1017.0R
SOLOMONS ISLAND  0900      38                N/A
PINEY POINT      0900          360/ 22/ 25   N/A

$$



USA.gov is the U.S. government's official web portal to all federal, state and local government web resources and services.